Location: ??????
(36.0418°N, 43.6351°E)
Time: 21:44:26
(UTC+00:00)

ALOS - Pass Details

Date: 07 March 2021
Orbit: 683 x 685 km, 97.9° (Epoch: 19 April)

Event Time Altitude Azimuth Distance (km) Brightness Sun altitude
Rises 01:05:51 0° 16° (NNE) 3,055 6.0 -29.2°
Reaches altitude 10° 01:08:08 10° 21° (NNE) 2,135 5.2 -28.8°
Maximum altitude 01:12:44 58° 100° (E) 798 2.7 -27.9°
Enters shadow 01:13:10 55° 125° (SE) 819 2.7 -27.8°
